Starlink 4059

operational
NORAD ID: 53250 Int'l Des: 2022-086 Owner: SPXS Country: US Constellation: starlink
LEOCIRCULAR

About Starlink 4059

Description loading...

Live Position

Loading 3D Globe...

Upcoming Passes

Altitude History

Altitude vs Time

uPlot chart will show altitude changes over time

Two-Line Element Set

1 53250U 22086J 26067.52098651 .00000820 00000-0 69590-4 0 9993
2 53250 53.2165 199.3671 0001025 84.1173 275.9936 15.08838861200895
Epoch: Mar 8, 2026 • Age: 17 hours

Current Status

Altitude 552.6 km
Velocity 7.58 km/s
Sub-Earth Point -37.71°S, 3.17°W
Launch Date Jul 24, 2022
Age 3.6 years
Type internet

Technical Details

Classification Payload
Mass 297.00 kg
Dry Mass 275.00 kg
Total Mass 297.00 kg
Length 0.20 m
Diameter 2.80 m
Span 9.00 m
Shape Box + pan
Manufacturer SPXS
Bus Type Starlink
Phase Status In Orbit
Owner/State SPXS/US

Large Constellations

Loading constellations...